Find Starlink 30753

NORAD ID: 58175 Int'l Des: 2023-167 Owner: SPXS Country: US Constellation: starlink operational
LEOCIRCULAR

Live Position

Loading 3D Globe...

About Starlink 30753

Description loading...

Upcoming Passes

Passes for default location (London). Set your location on the main map for personalized predictions.

Altitude History

Loading altitude history...

Two-Line Element Set

1 58175U 23167A 26124.65866409 -.00005654 00000-0 -19604-3 0 9999
2 58175 43.0005 187.4261 0001368 267.6935 92.3760 15.27586587139548
Epoch: May 4, 2026 • Age: 13 hours

Current Status

Altitude 486.0 km
Velocity 7.63 km/s
Sub-Earth Point 38.10°N, 11.54°E
Launch Date Oct 30, 2023
Age 2.5 years
Type internet

Technical Details

Classification Payload
Mass 730.00 kg
Dry Mass 700.00 kg
Total Mass 730.00 kg
Length 0.30 m
Diameter 4.10 m
Span 29.00 m
Shape Box + pan
Manufacturer SPXS
Bus Type Starlink V2M
Phase Status In Orbit
Owner/State SPXS/US

Most Searched